User: anonymous   Login
Location: Albany
(35.0000°S, 118.0000°E)
Time: 17:52:34
(UTC-04:00)
Language:

Cosmos 2227 Rocket - Orbit

View from above orbital plane
View from above orbital plane
View from above satellite
View from above satellite

Ground track
Ground track

The orbit data is extracted from the following two-line orbital elements,

1 22285U 92093B   16151.86013266 +.00000276 +00000-0 +16716-3 0  9997
2 22285 071.0219 294.2973 0004932 326.3515 033.7294 14.14995494208176
Epoch (UTC): 30 May 2016 20:38:35
Eccentricity: 0.0004932
inclination: 71.0219°
perigee height: 839 km
apogee height: 846 km
right ascension of ascending node: 294.2973°
argument of perigee: 326.3515°
revolutions per day: 14.14995494
mean anomaly at epoch: 33.7294°
orbit number at epoch: 20817

The dashed part of the orbit path shows where the satellite is in the earth's shadow,  

DLR